This demonstration page uses our WeatherBlox Daily Observations layout. Learn more.

36.17497, -115.13722

Hourly Observations for September 14, 2018

Temp ( °F °C ) Dew Point ( °F °C ) Humidity (%) Winds ( mph kmh ) Pressure ( in mb ) Visibility ( mi km ) Precip ( " mm )
12:53 am 00:53 Clear 83 28.3 23 -5 11 11 Calm 29.83 1010 10 16.09344 0 0
1:53 am 01:53 Clear 80 26.7 24 -4.4 13 13 S 3 6 29.83 1010 10 16.09344 0 0
2:53 am 02:53 Clear 77 25 24 -4.4 14 14 S 3 6 29.83 1010 10 16.09344 0 0
3:53 am 03:53 Clear 73 22.8 25 -3.9 17 17 ESE 5 7 29.83 1010 10 16.09344 0 0
4:53 am 04:53 Clear 73 22.8 26 -3.3 17 17 NE 5 7 29.83 1010 10 16.09344 0 0
5:53 am 05:53 Clear 70 21.1 27 -2.8 20 20 NNW 5 7 29.83 1010 10 16.09344 0 0
6:53 am 06:53 Sunny 70 21.1 29 -1.7 22 22 NW 3 6 29.85 1011 10 16.09344 0 0
7:53 am 07:53 Sunny 75 23.9 30 -1.1 19 19 NE 3 6 29.85 1011 10 16.09344 0 0
8:53 am 08:53 Sunny 80 26.7 27 -2.8 14 14 E 3 6 29.85 1011 10 16.09344 0 0
9:53 am 09:53 Sunny 86 30 26 -3.3 11 11 SSE 9 15 29.85 1011 10 16.09344 0 0
10:53 am 10:53 Sunny 90 32.2 21 -6.1 8 8 ESE 9 15 29.85 1011 10 16.09344 0 0
11:53 am 11:53 Sunny 93 33.9 17 -8.3 6 6 SE 12 19 29.83 1010 10 16.09344 0 0
12:53 pm 12:53 Sunny 96 35.6 17 -8.3 5 5 SSE 12 19 29.8 1009 10 16.09344 0 0
1:53 pm 13:53 Sunny 97 36.1 13 -10.6 4 4 SSW 7 11 29.77 1008 10 16.09344 0 0
2:53 pm 14:53 Sunny 99 37.2 18 -7.8 5 5 SSW 16 26 29.77 1008 10 16.09344 0 0
3:53 pm 15:53 Sunny 99 37.2 21 -6.1 6 6 SW 13 20 29.74 1007 10 16.09344 0 0
4:53 pm 16:53 Sunny 98 36.7 21 -6.1 6 6 WSW 12 19 29.74 1007 10 16.09344 0 0
5:53 pm 17:53 Sunny 98 36.7 24 -4.4 7 7 WSW 10 17 29.74 1007 10 16.09344 0 0
6:53 pm 18:53 Clear 95 35 27 -2.8 9 9 SW 9 15 29.74 1007 10 16.09344 0 0
7:53 pm 19:53 Clear 92 33.3 28 -2.2 10 10 WSW 7 11 29.74 1007 10 16.09344 0 0
8:53 pm 20:53 Clear 90 32.2 26 -3.3 10 10 WSW 7 11 29.77 1008 10 16.09344 0 0
9:53 pm 21:53 Clear 86 30 27 -2.8 12 12 SSW 6 9 29.77 1008 10 16.09344 0 0
10:53 pm 22:53 Clear 84 28.9 28 -2.2 13 13 Calm 29.77 1008 10 16.09344 0 0
11:53 pm 23:53 Clear 79 26.1 30 -1.1 17 17 NE 3 6 29.77 1008 10 16.09344 0 0

Powered by AerisWeather